Overview Statistics Trail Chart Weather Telemetry Raw packets
 

This is the latest recevied weather packets stored in our database for station/object KI5RAB. If no packets are shown the sender has not sent any weather packets the latest 10 day(s).

<< 18 19 20 21 22 23 24 >>
Time Temp. Humidity Pressure Rain* Wind** Luminosity Snow
1788541827 31.67° C 69% 1018 hPa 0 mm - 348 W/m² -
1788541522 32.22° C 67% 1018.3 hPa 0 mm - 391 W/m² -
1788541219 31.67° C 67% 1018 hPa 0 mm - 752 W/m² -
1788540917 31.11° C 71% 1018.3 hPa 0 mm - 559 W/m² -
1788540617 30.56° C 71% 1018.4 hPa 0 mm - 344 W/m² -
1788540312 30.56° C 71% 1018.3 hPa 0 mm - 279 W/m² -
1788540008 30.56° C 73% 1018.3 hPa 0 mm - 262 W/m² -
1788539702 30° C 73% 1018.4 hPa 0 mm - 288 W/m² -
1788539401 30.56° C 74% 1018.5 hPa 0 mm - 221 W/m² -
1788539096 30° C 73% 1018.4 hPa 0 mm - 234 W/m² -
1788538792 30.56° C 73% 1018.3 hPa 0 mm - 241 W/m² -
1788538487 30.56° C 74% 1018.2 hPa 0 mm - 253 W/m² -
1788538183 30° C 74% 1018.2 hPa 0 mm - 224 W/m² -
1788537877 30° C 74% 1018.2 hPa 0 mm - 226 W/m² -
1788537573 30.56° C 74% 1018.4 hPa 0 mm - 317 W/m² -
1788537273 30° C 75% 1018.4 hPa 0 mm - 298 W/m² -
1788536971 30.56° C 75% 1018.3 hPa 0 mm - 345 W/m² -
1788536666 30.56° C 74% 1018.4 hPa 0 mm - 624 W/m² -
1788536361 30° C 76% 1018.2 hPa 0 mm - 631 W/m² -
1788536056 29.44° C 77% 1018.4 hPa 0 mm - 272 W/m² -
1788535754 29.44° C 79% 1018.2 hPa 0 mm - 163 W/m² -
1788535453 29.44° C 78% 1018 hPa 0 mm - 189 W/m² -
1788535153 29.44° C 78% 1017.9 hPa 0 mm - 244 W/m² -
1788534848 30° C 78% 1017.9 hPa 0 mm - 263 W/m² -
1788534543 30° C 77% 1018 hPa 0 mm - 278 W/m² -

* Rain latest hour (hover to see other rain measurements)
** Current wind speed in m/s (hover to see current wind gust speed)